Year,Month,Day,Hour,Minute,Value (Times are PST for temperature in C)
2009,01,19,00,00,6.80
2009,01,19,00,01,6.80
2009,01,19,00,02,6.80
2009,01,19,00,03,6.80
2009,01,19,00,04,6.80
2009,01,19,00,05,6.70
2009,01,19,00,06,6.70
2009,01,19,00,07,6.70
2009,01,19,00,08,6.70
2009,01,19,00,09,6.70
2009,01,19,00,10,6.60
2009,01,19,00,11,6.60
2009,01,19,00,12,6.60
2009,01,19,00,13,6.50
2009,01,19,00,14,6.40
2009,01,19,00,15,6.40
2009,01,19,00,16,6.40
2009,01,19,00,17,6.40
2009,01,19,00,18,6.40
2009,01,19,00,19,6.40
2009,01,19,00,20,6.40
2009,01,19,00,21,6.40
2009,01,19,00,22,6.40
2009,01,19,00,23,6.40
2009,01,19,00,24,6.40
2009,01,19,00,25,6.40
2009,01,19,00,26,6.40
2009,01,19,00,27,6.40
2009,01,19,00,28,6.40
2009,01,19,00,29,6.40
2009,01,19,00,30,6.40
2009,01,19,00,31,6.50
2009,01,19,00,32,6.60
2009,01,19,00,33,6.60
2009,01,19,00,34,6.60
2009,01,19,00,35,6.60
2009,01,19,00,36,6.50
2009,01,19,00,37,6.40
2009,01,19,00,38,6.40
2009,01,19,00,39,6.40
2009,01,19,00,40,6.40
2009,01,19,00,41,6.40
2009,01,19,00,42,6.40
2009,01,19,00,43,6.40
2009,01,19,00,44,6.40
2009,01,19,00,45,6.40
2009,01,19,00,46,6.40
2009,01,19,00,47,6.40
2009,01,19,00,48,6.40
2009,01,19,00,49,6.40
2009,01,19,00,50,6.40
2009,01,19,00,51,6.40
2009,01,19,00,52,6.40
2009,01,19,00,53,6.30
2009,01,19,00,54,6.30
2009,01,19,00,55,6.20
2009,01,19,00,56,6.10
2009,01,19,00,57,6.10
2009,01,19,00,58,6.00
2009,01,19,00,59,6.00
2009,01,19,01,00,6.00
2009,01,19,01,01,6.00
2009,01,19,01,02,5.90
2009,01,19,01,03,5.90
2009,01,19,01,04,5.90
2009,01,19,01,05,5.90
2009,01,19,01,06,5.90
2009,01,19,01,07,5.90
2009,01,19,01,08,5.90
2009,01,19,01,09,5.90
2009,01,19,01,10,5.90
2009,01,19,01,11,5.90
2009,01,19,01,12,6.00
2009,01,19,01,13,6.00
2009,01,19,01,14,6.10
2009,01,19,01,15,6.10
2009,01,19,01,16,6.20
2009,01,19,01,17,6.20
2009,01,19,01,18,6.20
2009,01,19,01,19,6.20
2009,01,19,01,20,6.20
2009,01,19,01,21,6.30
2009,01,19,01,22,6.30
2009,01,19,01,23,6.30
2009,01,19,01,24,6.40
2009,01,19,01,25,6.40
2009,01,19,01,26,6.40
2009,01,19,01,27,6.40
2009,01,19,01,28,6.40
2009,01,19,01,29,6.30
2009,01,19,01,30,6.30
2009,01,19,01,31,6.30
2009,01,19,01,32,6.20
2009,01,19,01,33,6.20
2009,01,19,01,34,6.20
2009,01,19,01,35,6.20
2009,01,19,01,36,6.10
2009,01,19,01,37,6.10
2009,01,19,01,38,6.00
2009,01,19,01,39,6.00
2009,01,19,01,40,5.90
2009,01,19,01,41,5.80
2009,01,19,01,42,5.80
2009,01,19,01,43,5.80
2009,01,19,01,44,5.80
2009,01,19,01,45,5.80
2009,01,19,01,46,5.80
2009,01,19,01,47,5.80
2009,01,19,01,48,5.80
2009,01,19,01,49,5.90
2009,01,19,01,50,5.90
2009,01,19,01,51,5.90
2009,01,19,01,52,5.90
2009,01,19,01,53,6.00
2009,01,19,01,54,6.00
2009,01,19,01,55,6.00
2009,01,19,01,56,6.00
2009,01,19,01,57,6.00
2009,01,19,01,58,6.00
2009,01,19,01,59,5.90
2009,01,19,02,00,5.90
2009,01,19,02,01,5.90
2009,01,19,02,02,5.90
2009,01,19,02,03,5.80
2009,01,19,02,04,5.80
2009,01,19,02,05,5.80
2009,01,19,02,06,5.80
2009,01,19,02,07,5.80
2009,01,19,02,08,5.80
2009,01,19,02,09,5.70
2009,01,19,02,10,5.70
2009,01,19,02,11,5.70
2009,01,19,02,12,5.70
2009,01,19,02,13,5.70
2009,01,19,02,14,5.70
2009,01,19,02,15,5.70
2009,01,19,02,16,5.70
2009,01,19,02,17,5.70
2009,01,19,02,18,5.70
2009,01,19,02,19,5.70
2009,01,19,02,20,5.70
2009,01,19,02,21,5.70
2009,01,19,02,22,5.70
2009,01,19,02,23,5.70
2009,01,19,02,24,5.70
2009,01,19,02,25,5.80
2009,01,19,02,26,5.80
2009,01,19,02,27,5.70
2009,01,19,02,28,5.70
2009,01,19,02,29,5.70
2009,01,19,02,30,5.70
2009,01,19,02,31,5.70
2009,01,19,02,32,5.70
2009,01,19,02,33,5.60
2009,01,19,02,34,5.60
2009,01,19,02,35,5.50
2009,01,19,02,36,5.50
2009,01,19,02,37,5.40
2009,01,19,02,38,5.30
2009,01,19,02,39,5.30
2009,01,19,02,40,5.30
2009,01,19,02,41,5.20
2009,01,19,02,42,5.20
2009,01,19,02,43,5.10
2009,01,19,02,44,5.10
2009,01,19,02,45,5.10
2009,01,19,02,46,5.10
2009,01,19,02,47,5.10
2009,01,19,02,48,5.00
2009,01,19,02,49,4.90
2009,01,19,02,50,4.60
2009,01,19,02,51,4.40
2009,01,19,02,52,4.30
2009,01,19,02,53,4.20
2009,01,19,02,54,4.20
2009,01,19,02,55,4.20
2009,01,19,02,56,4.20
2009,01,19,02,57,4.20
2009,01,19,02,58,4.10
2009,01,19,02,59,4.10
2009,01,19,03,00,4.10
2009,01,19,03,01,4.20
2009,01,19,03,02,4.20
2009,01,19,03,03,4.20
2009,01,19,03,04,4.20
2009,01,19,03,05,4.20
2009,01,19,03,06,4.20
2009,01,19,03,07,4.20
2009,01,19,03,08,4.20
2009,01,19,03,09,4.20
2009,01,19,03,10,4.30
2009,01,19,03,11,4.30
2009,01,19,03,12,4.20
2009,01,19,03,13,4.20
2009,01,19,03,14,4.20
2009,01,19,03,15,4.30
2009,01,19,03,16,4.30
2009,01,19,03,17,4.30
2009,01,19,03,18,4.30
2009,01,19,03,19,4.30
2009,01,19,03,20,4.30
2009,01,19,03,21,4.30
2009,01,19,03,22,4.30
2009,01,19,03,23,4.30
2009,01,19,03,24,4.40
2009,01,19,03,25,4.40
2009,01,19,03,26,4.40
2009,01,19,03,27,4.50
2009,01,19,03,28,4.50
2009,01,19,03,29,4.60
2009,01,19,03,30,4.60
2009,01,19,03,31,4.60
2009,01,19,03,32,4.60
2009,01,19,03,33,4.70
2009,01,19,03,34,4.80
2009,01,19,03,35,4.80
2009,01,19,03,36,4.90
2009,01,19,03,37,4.90
2009,01,19,03,38,4.90
2009,01,19,03,39,5.10
2009,01,19,03,40,5.10
2009,01,19,03,41,5.00
2009,01,19,03,42,4.90
2009,01,19,03,43,4.90
2009,01,19,03,44,4.80
2009,01,19,03,45,4.70
2009,01,19,03,46,4.60
2009,01,19,03,47,4.50
2009,01,19,03,48,4.40
2009,01,19,03,49,4.30
2009,01,19,03,50,4.30
2009,01,19,03,51,4.20
2009,01,19,03,52,4.20
2009,01,19,03,53,4.20
2009,01,19,03,54,4.10
2009,01,19,03,55,4.00
2009,01,19,03,56,4.00
2009,01,19,03,57,3.90
2009,01,19,03,58,3.80
2009,01,19,03,59,3.70
2009,01,19,04,00,3.60
2009,01,19,04,01,3.50
2009,01,19,04,02,3.50
2009,01,19,04,03,3.40
2009,01,19,04,04,3.40
2009,01,19,04,05,3.30
2009,01,19,04,06,3.30
2009,01,19,04,07,3.20
2009,01,19,04,08,3.10
2009,01,19,04,09,2.90
2009,01,19,04,10,2.90
2009,01,19,04,11,2.80
2009,01,19,04,12,2.70
2009,01,19,04,13,2.70
2009,01,19,04,14,2.70
2009,01,19,04,15,2.80
2009,01,19,04,16,2.80
2009,01,19,04,17,2.90
2009,01,19,04,18,2.90
2009,01,19,04,19,3.00
2009,01,19,04,20,3.10
2009,01,19,04,21,3.10
2009,01,19,04,22,3.10
2009,01,19,04,23,3.10
2009,01,19,04,24,3.10
2009,01,19,04,25,3.00
2009,01,19,04,26,2.90
2009,01,19,04,27,2.90
2009,01,19,04,28,2.90
2009,01,19,04,29,2.90
2009,01,19,04,30,2.90
2009,01,19,04,31,2.80
2009,01,19,04,32,2.80
2009,01,19,04,33,2.70
2009,01,19,04,34,2.70
2009,01,19,04,35,2.60
2009,01,19,04,36,2.60
2009,01,19,04,37,2.50
2009,01,19,04,38,2.50
2009,01,19,04,39,2.40
2009,01,19,04,40,2.30
2009,01,19,04,41,2.20
2009,01,19,04,42,2.20
2009,01,19,04,43,2.20
2009,01,19,04,44,2.20
2009,01,19,04,45,2.10
2009,01,19,04,46,2.10
2009,01,19,04,47,2.00
2009,01,19,04,48,2.00
2009,01,19,04,49,1.90
2009,01,19,04,50,1.90
2009,01,19,04,51,1.80
2009,01,19,04,52,1.80
2009,01,19,04,53,1.80
2009,01,19,04,54,1.80
2009,01,19,04,55,1.80
2009,01,19,04,56,1.80
2009,01,19,04,57,1.80
2009,01,19,04,58,1.80
2009,01,19,04,59,1.70
2009,01,19,05,00,1.70
2009,01,19,05,01,1.60
2009,01,19,05,02,1.60
2009,01,19,05,03,1.60
2009,01,19,05,04,1.50
2009,01,19,05,05,1.50
2009,01,19,05,06,1.50
2009,01,19,05,07,1.50
2009,01,19,05,08,1.50
2009,01,19,05,09,1.40
2009,01,19,05,10,1.40
2009,01,19,05,11,1.40
2009,01,19,05,12,1.40
2009,01,19,05,13,1.30
2009,01,19,05,14,1.30
2009,01,19,05,15,1.30
2009,01,19,05,16,1.20
2009,01,19,05,17,1.10
2009,01,19,05,18,1.00
2009,01,19,05,19,1.00
2009,01,19,05,20,0.90
2009,01,19,05,21,0.80
2009,01,19,05,22,0.80
2009,01,19,05,23,0.60
2009,01,19,05,24,0.60
2009,01,19,05,25,0.50
2009,01,19,05,26,0.50
2009,01,19,05,27,0.50
2009,01,19,05,28,0.50
2009,01,19,05,29,0.60
2009,01,19,05,30,0.60
2009,01,19,05,31,0.70
2009,01,19,05,32,0.70
2009,01,19,05,33,0.70
2009,01,19,05,34,0.70
2009,01,19,05,35,0.70
2009,01,19,05,36,0.70
2009,01,19,05,37,0.60
2009,01,19,05,38,0.60
2009,01,19,05,39,0.60
2009,01,19,05,40,0.50
2009,01,19,05,41,0.50
2009,01,19,05,42,0.50
2009,01,19,05,43,0.40
2009,01,19,05,44,0.40
2009,01,19,05,45,0.30
2009,01,19,05,46,0.30
2009,01,19,05,47,0.30
2009,01,19,05,48,0.20
2009,01,19,05,49,0.20
2009,01,19,05,50,0.20
2009,01,19,05,51,0.20
2009,01,19,05,52,0.20
2009,01,19,05,53,0.20
2009,01,19,05,54,0.20
2009,01,19,05,55,0.20
2009,01,19,05,56,0.20
2009,01,19,05,57,0.30
2009,01,19,05,58,0.30
2009,01,19,05,59,0.30
2009,01,19,06,00,0.30
2009,01,19,06,01,0.20
2009,01,19,06,02,0.20
2009,01,19,06,03,0.20
2009,01,19,06,04,0.10
2009,01,19,06,05,0.10
2009,01,19,06,06,0.10
2009,01,19,06,07,0.10
2009,01,19,06,08,0.10
2009,01,19,06,09,0.10
2009,01,19,06,10,0.00
2009,01,19,06,11,-0.10
2009,01,19,06,12,-0.10
2009,01,19,06,13,-0.10
2009,01,19,06,14,-0.10
2009,01,19,06,15,-0.10
2009,01,19,06,16,-0.10
2009,01,19,06,17,-0.10
2009,01,19,06,18,-0.10
2009,01,19,06,19,-0.10
2009,01,19,06,20,-0.10
2009,01,19,06,21,-0.20
2009,01,19,06,22,-0.20
2009,01,19,06,23,-0.20
2009,01,19,06,24,-0.30
2009,01,19,06,25,-0.30
2009,01,19,06,26,-0.40
2009,01,19,06,27,-0.40
2009,01,19,06,28,-0.40
2009,01,19,06,29,-0.20
2009,01,19,06,30,0.00
2009,01,19,06,31,0.30
2009,01,19,06,32,0.50
2009,01,19,06,33,0.80
2009,01,19,06,34,1.00
2009,01,19,06,35,1.20
2009,01,19,06,36,1.40
2009,01,19,06,37,1.60
2009,01,19,06,38,1.70
2009,01,19,06,39,1.90
2009,01,19,06,40,2.10
2009,01,19,06,41,2.20
2009,01,19,06,42,2.40
2009,01,19,06,43,2.60
2009,01,19,06,44,2.70
2009,01,19,06,45,2.90
2009,01,19,06,46,3.00
2009,01,19,06,47,3.10
2009,01,19,06,48,3.10
2009,01,19,06,49,3.20
2009,01,19,06,50,3.20
2009,01,19,06,51,3.20
2009,01,19,06,52,3.10
2009,01,19,06,53,3.10
2009,01,19,06,54,3.00
2009,01,19,06,55,2.90
2009,01,19,06,56,2.80
2009,01,19,06,57,2.80
2009,01,19,06,58,2.70
2009,01,19,06,59,2.60
2009,01,19,07,00,2.60
2009,01,19,07,01,2.60
2009,01,19,07,02,2.60
2009,01,19,07,03,2.60
2009,01,19,07,04,2.60
2009,01,19,07,05,2.50
2009,01,19,07,06,2.50
2009,01,19,07,07,2.40
2009,01,19,07,08,2.20
2009,01,19,07,09,2.20
2009,01,19,07,10,2.10
2009,01,19,07,11,1.90
2009,01,19,07,12,1.80
2009,01,19,07,13,1.60
2009,01,19,07,14,1.50
2009,01,19,07,15,1.40
2009,01,19,07,16,1.30
2009,01,19,07,17,1.20
2009,01,19,07,18,1.20
2009,01,19,07,19,1.10
2009,01,19,07,20,1.00
2009,01,19,07,21,0.90
2009,01,19,07,22,0.80
2009,01,19,07,23,0.80
2009,01,19,07,24,0.70
2009,01,19,07,25,0.60
2009,01,19,07,26,0.60
2009,01,19,07,27,0.50
2009,01,19,07,28,0.40
2009,01,19,07,29,0.40
2009,01,19,07,30,0.40
2009,01,19,07,31,0.30
2009,01,19,07,32,0.30
2009,01,19,07,33,0.20
2009,01,19,07,34,0.20
2009,01,19,07,35,0.20
2009,01,19,07,36,0.10
2009,01,19,07,37,0.10
2009,01,19,07,38,0.10
2009,01,19,07,39,0.10
2009,01,19,07,40,0.10
2009,01,19,07,41,0.10
2009,01,19,07,42,0.10
2009,01,19,07,43,0.10
2009,01,19,07,44,0.00
2009,01,19,07,45,-0.10
2009,01,19,07,46,-0.10
2009,01,19,07,47,-0.10
2009,01,19,07,48,-0.10
2009,01,19,07,49,-0.10
2009,01,19,07,50,-0.10
2009,01,19,07,51,-0.20
2009,01,19,07,52,-0.20
2009,01,19,07,53,-0.30
2009,01,19,07,54,-0.30
2009,01,19,07,55,-0.30
2009,01,19,07,56,-0.40
2009,01,19,07,57,-0.40
2009,01,19,07,58,-0.40
2009,01,19,07,59,-0.40
2009,01,19,08,00,-0.40
2009,01,19,08,01,-0.50
2009,01,19,08,02,-0.60
2009,01,19,08,03,-0.60
2009,01,19,08,04,-0.60
2009,01,19,08,05,-0.60
2009,01,19,08,06,-0.60
2009,01,19,08,07,-0.50
2009,01,19,08,08,-0.40
2009,01,19,08,09,-0.40
2009,01,19,08,10,-0.40
2009,01,19,08,11,-0.40
2009,01,19,08,12,-0.40
2009,01,19,08,13,-0.60
2009,01,19,08,14,-0.60
2009,01,19,08,15,-0.60
2009,01,19,08,16,-0.60
2009,01,19,08,17,-0.60
2009,01,19,08,18,-0.60
2009,01,19,08,19,-0.60
2009,01,19,08,20,-0.60
2009,01,19,08,21,-0.60
2009,01,19,08,22,-0.60
2009,01,19,08,23,-0.50
2009,01,19,08,24,-0.40
2009,01,19,08,25,-0.40
2009,01,19,08,26,-0.40
2009,01,19,08,27,-0.40
2009,01,19,08,28,-0.30
2009,01,19,08,29,-0.30
2009,01,19,08,30,-0.30
2009,01,19,08,31,-0.20
2009,01,19,08,32,-0.10
2009,01,19,08,33,-0.10
2009,01,19,08,34,-0.10
2009,01,19,08,35,0.00
2009,01,19,08,36,0.10
2009,01,19,08,37,0.10
2009,01,19,08,38,0.10
2009,01,19,08,39,0.20
2009,01,19,08,40,0.20
2009,01,19,08,41,0.20
2009,01,19,08,42,0.30
2009,01,19,08,43,0.30
2009,01,19,08,44,0.40
2009,01,19,08,45,0.40
2009,01,19,08,46,0.50
2009,01,19,08,47,0.50
2009,01,19,08,48,0.60
2009,01,19,08,49,0.60
2009,01,19,08,50,0.70
2009,01,19,08,51,0.80
2009,01,19,08,52,0.80
2009,01,19,08,53,0.90
2009,01,19,08,54,1.00
2009,01,19,08,55,1.00
2009,01,19,08,56,1.10
2009,01,19,08,57,1.20
2009,01,19,08,58,1.40
2009,01,19,08,59,1.60
2009,01,19,09,00,1.70
2009,01,19,09,01,1.80
2009,01,19,09,02,1.80
2009,01,19,09,03,1.80
2009,01,19,09,04,1.90
2009,01,19,09,05,1.90
2009,01,19,09,06,1.90
2009,01,19,09,07,2.00
2009,01,19,09,08,2.00
2009,01,19,09,09,2.10
2009,01,19,09,10,2.20
2009,01,19,09,11,2.30
2009,01,19,09,12,2.30
2009,01,19,09,13,2.40
2009,01,19,09,14,2.40
2009,01,19,09,15,2.40
2009,01,19,09,16,2.50
2009,01,19,09,17,2.60
2009,01,19,09,18,2.60
2009,01,19,09,19,2.70
2009,01,19,09,20,2.70
2009,01,19,09,21,2.80
2009,01,19,09,22,2.90
2009,01,19,09,23,2.90
2009,01,19,09,24,3.10
2009,01,19,09,25,3.20
2009,01,19,09,26,3.30
2009,01,19,09,27,3.40
2009,01,19,09,28,3.50
2009,01,19,09,29,3.60
2009,01,19,09,30,3.70
2009,01,19,09,31,3.80
2009,01,19,09,32,3.90
2009,01,19,09,33,4.00
2009,01,19,09,34,4.00
2009,01,19,09,35,4.10
2009,01,19,09,36,4.20
2009,01,19,09,37,4.40
2009,01,19,09,38,4.50
2009,01,19,09,39,4.70
2009,01,19,09,40,4.90
2009,01,19,09,41,5.10
2009,01,19,09,42,5.20
2009,01,19,09,43,5.40
2009,01,19,09,44,5.50
2009,01,19,09,45,5.60
2009,01,19,09,46,5.70
2009,01,19,09,47,5.80
2009,01,19,09,48,5.90
2009,01,19,09,49,6.00
2009,01,19,09,50,6.00
2009,01,19,09,51,6.10
2009,01,19,09,52,6.20
2009,01,19,09,53,6.30
2009,01,19,09,54,6.40
2009,01,19,09,55,6.50
2009,01,19,09,56,6.60
2009,01,19,09,57,6.60
2009,01,19,09,58,6.70
2009,01,19,09,59,6.80
2009,01,19,10,00,6.80
2009,01,19,10,01,6.90
2009,01,19,10,02,6.90
2009,01,19,10,03,6.90
2009,01,19,10,04,6.90
2009,01,19,10,05,6.90
2009,01,19,10,06,6.80
2009,01,19,10,07,6.80
2009,01,19,10,08,6.80
2009,01,19,10,09,6.70
2009,01,19,10,10,6.70
2009,01,19,10,11,6.70
2009,01,19,10,12,6.70
2009,01,19,10,13,6.80
2009,01,19,10,14,6.80
2009,01,19,10,15,6.80
2009,01,19,10,16,6.80
2009,01,19,10,17,6.80
2009,01,19,10,18,6.80
2009,01,19,10,19,6.90
2009,01,19,10,20,6.90
2009,01,19,10,21,7.00
2009,01,19,10,22,7.00
2009,01,19,10,23,7.00
2009,01,19,10,24,7.00
2009,01,19,10,25,7.10
2009,01,19,10,26,7.20
2009,01,19,10,27,7.20
2009,01,19,10,28,7.20
2009,01,19,10,29,7.30
2009,01,19,10,30,7.30
2009,01,19,10,31,7.30
2009,01,19,10,32,7.40
2009,01,19,10,33,7.40
2009,01,19,10,34,7.40
2009,01,19,10,35,7.40
2009,01,19,10,36,7.40
2009,01,19,10,37,7.40
2009,01,19,10,38,7.40
2009,01,19,10,39,7.40
2009,01,19,10,40,7.50
2009,01,19,10,41,7.50
2009,01,19,10,42,7.50
2009,01,19,10,43,7.60
2009,01,19,10,44,7.60
2009,01,19,10,45,7.70
2009,01,19,10,46,7.70
2009,01,19,10,47,7.80
2009,01,19,10,48,7.80
2009,01,19,10,49,7.90
2009,01,19,10,50,8.00
2009,01,19,10,51,8.10
2009,01,19,10,52,8.20
2009,01,19,10,53,8.30
2009,01,19,10,54,8.40
2009,01,19,10,55,8.50
2009,01,19,10,56,8.50
2009,01,19,10,57,8.60
2009,01,19,10,58,8.70
2009,01,19,10,59,8.70
2009,01,19,11,00,8.70
2009,01,19,11,01,8.70
2009,01,19,11,02,8.70
2009,01,19,11,03,8.70
2009,01,19,11,04,8.70
2009,01,19,11,05,8.70
2009,01,19,11,06,8.70
2009,01,19,11,07,8.70
2009,01,19,11,08,8.70
2009,01,19,11,09,8.80
2009,01,19,11,10,8.90
2009,01,19,11,11,8.90
2009,01,19,11,12,9.00
2009,01,19,11,13,9.00
2009,01,19,11,14,9.10
2009,01,19,11,15,9.20
2009,01,19,11,16,9.20
2009,01,19,11,17,9.20
2009,01,19,11,18,9.20
2009,01,19,11,19,9.30
2009,01,19,11,20,9.30
2009,01,19,11,21,9.40
2009,01,19,11,22,9.40
2009,01,19,11,23,9.50
2009,01,19,11,24,9.50
2009,01,19,11,25,9.50
2009,01,19,11,26,9.60
2009,01,19,11,27,9.60
2009,01,19,11,28,9.60
2009,01,19,11,29,9.70
2009,01,19,11,30,9.70
2009,01,19,11,31,9.70
2009,01,19,11,32,9.70
2009,01,19,11,33,9.70
2009,01,19,11,34,9.80
2009,01,19,11,35,9.80
2009,01,19,11,36,9.80
2009,01,19,11,37,9.80
2009,01,19,11,38,9.80
2009,01,19,11,39,9.80
2009,01,19,11,40,9.80
2009,01,19,11,41,9.80
2009,01,19,11,42,9.80
2009,01,19,11,43,9.80
2009,01,19,11,44,9.80
2009,01,19,11,45,9.80
2009,01,19,11,46,9.80
2009,01,19,11,47,9.90
2009,01,19,11,48,9.90
2009,01,19,11,49,9.90
2009,01,19,11,50,9.90
2009,01,19,11,51,9.90
2009,01,19,11,52,9.90
2009,01,19,11,53,9.90
2009,01,19,11,54,9.90
2009,01,19,11,55,9.90
2009,01,19,11,56,9.90
2009,01,19,11,57,10.00
2009,01,19,11,58,10.10
2009,01,19,11,59,10.10
2009,01,19,12,00,10.10
2009,01,19,12,01,10.10
2009,01,19,12,02,10.10
2009,01,19,12,03,10.20
2009,01,19,12,04,10.20
2009,01,19,12,05,10.30
2009,01,19,12,06,10.30
2009,01,19,12,07,10.40
2009,01,19,12,08,10.40
2009,01,19,12,09,10.40
2009,01,19,12,10,10.40
2009,01,19,12,11,10.40
2009,01,19,12,12,10.60
2009,01,19,12,13,10.60
2009,01,19,12,14,10.60
2009,01,19,12,15,10.60
2009,01,19,12,16,10.60
2009,01,19,12,17,10.60
2009,01,19,12,18,10.60
2009,01,19,12,19,10.60
2009,01,19,12,20,10.60
2009,01,19,12,21,10.60
2009,01,19,12,22,10.60
2009,01,19,12,23,10.60
2009,01,19,12,24,10.70
2009,01,19,12,25,10.80
2009,01,19,12,26,10.90
2009,01,19,12,27,11.00
2009,01,19,12,28,11.10
2009,01,19,12,29,11.10
2009,01,19,12,30,11.10
2009,01,19,12,31,11.20
2009,01,19,12,32,11.20
2009,01,19,12,33,11.20
2009,01,19,12,34,11.30
2009,01,19,12,35,11.30
2009,01,19,12,36,11.20
2009,01,19,12,37,11.30
2009,01,19,12,38,11.30
2009,01,19,12,39,11.30
2009,01,19,12,40,11.30
2009,01,19,12,41,11.30
2009,01,19,12,42,11.20
2009,01,19,12,43,11.20
2009,01,19,12,44,11.20
2009,01,19,12,45,11.20
2009,01,19,12,46,11.20
2009,01,19,12,47,11.20
2009,01,19,12,48,11.20
2009,01,19,12,49,11.20
2009,01,19,12,50,11.30
2009,01,19,12,51,11.30
2009,01,19,12,52,11.40
2009,01,19,12,53,11.40
2009,01,19,12,54,11.40
2009,01,19,12,55,11.40
2009,01,19,12,56,11.40
2009,01,19,12,57,11.50
2009,01,19,12,58,11.60
2009,01,19,12,59,11.60
2009,01,19,13,00,11.60
2009,01,19,13,01,11.60
2009,01,19,13,02,11.50
2009,01,19,13,03,11.40
2009,01,19,13,04,11.40
2009,01,19,13,05,11.40
2009,01,19,13,06,11.40
2009,01,19,13,07,11.40
2009,01,19,13,08,11.30
2009,01,19,13,09,11.30
2009,01,19,13,10,11.30
2009,01,19,13,11,11.30
2009,01,19,13,12,11.20
2009,01,19,13,13,11.20
2009,01,19,13,14,11.10
2009,01,19,13,15,11.10
2009,01,19,13,16,11.10
2009,01,19,13,17,11.10
2009,01,19,13,18,11.10
2009,01,19,13,19,11.10
2009,01,19,13,20,11.10
2009,01,19,13,21,11.10
2009,01,19,13,22,11.00
2009,01,19,13,23,10.90
2009,01,19,13,24,11.00
2009,01,19,13,25,11.10
2009,01,19,13,26,11.10
2009,01,19,13,27,11.10
2009,01,19,13,28,11.10
2009,01,19,13,29,11.10
2009,01,19,13,30,11.10
2009,01,19,13,31,11.10
2009,01,19,13,32,11.20
2009,01,19,13,33,11.20
2009,01,19,13,34,11.20
2009,01,19,13,35,11.30
2009,01,19,13,36,11.30
2009,01,19,13,37,11.30
2009,01,19,13,38,11.30
2009,01,19,13,39,11.30
2009,01,19,13,40,11.30
2009,01,19,13,41,11.20
2009,01,19,13,42,11.20
2009,01,19,13,43,11.20
2009,01,19,13,44,11.10
2009,01,19,13,45,11.10
2009,01,19,13,46,11.10
2009,01,19,13,47,11.10
2009,01,19,13,48,11.10
2009,01,19,13,49,11.10
2009,01,19,13,50,11.10
2009,01,19,13,51,11.10
2009,01,19,13,52,11.10
2009,01,19,13,53,11.10
2009,01,19,13,54,11.10
2009,01,19,13,55,11.10
2009,01,19,13,56,11.10
2009,01,19,13,57,11.10
2009,01,19,13,58,11.10
2009,01,19,13,59,11.10
2009,01,19,14,00,11.10
2009,01,19,14,01,11.10
2009,01,19,14,02,11.10
2009,01,19,14,03,11.10
2009,01,19,14,04,11.10
2009,01,19,14,05,11.10
2009,01,19,14,06,11.10
2009,01,19,14,07,11.10
2009,01,19,14,08,11.10
2009,01,19,14,09,11.20
2009,01,19,14,10,11.20
2009,01,19,14,11,11.20
2009,01,19,14,12,11.20
2009,01,19,14,13,11.20
2009,01,19,14,14,11.20
2009,01,19,14,15,11.20
2009,01,19,14,16,11.30
2009,01,19,14,17,11.30
2009,01,19,14,18,11.30
2009,01,19,14,19,11.30
2009,01,19,14,20,11.30
2009,01,19,14,21,11.30
2009,01,19,14,22,11.30
2009,01,19,14,23,11.30
2009,01,19,14,24,11.30
2009,01,19,14,25,11.20
2009,01,19,14,26,11.20
2009,01,19,14,27,11.20
2009,01,19,14,28,11.20
2009,01,19,14,29,11.10
2009,01,19,14,30,11.10
2009,01,19,14,31,11.10
2009,01,19,14,32,11.10
2009,01,19,14,33,11.00
2009,01,19,14,34,10.90
2009,01,19,14,35,10.90
2009,01,19,14,36,10.80
2009,01,19,14,37,10.70
2009,01,19,14,38,10.60
2009,01,19,14,39,10.50
2009,01,19,14,40,10.40
2009,01,19,14,41,10.30
2009,01,19,14,42,10.10
2009,01,19,14,43,10.10
2009,01,19,14,44,10.00
2009,01,19,14,45,9.90
2009,01,19,14,46,9.80
2009,01,19,14,47,9.80
2009,01,19,14,48,9.70
2009,01,19,14,49,9.70
2009,01,19,14,50,9.70
2009,01,19,14,51,9.70
2009,01,19,14,52,9.70
2009,01,19,14,53,9.70
2009,01,19,14,54,9.70
2009,01,19,14,55,9.70
2009,01,19,14,56,9.70
2009,01,19,14,57,9.80
2009,01,19,14,58,9.80
2009,01,19,14,59,9.90
2009,01,19,15,00,9.90
2009,01,19,15,01,9.90
2009,01,19,15,02,9.90
2009,01,19,15,03,9.90
2009,01,19,15,04,9.90
2009,01,19,15,05,9.90
2009,01,19,15,06,9.90
2009,01,19,15,07,9.90
2009,01,19,15,08,9.90
2009,01,19,15,09,9.90
2009,01,19,15,10,9.90
2009,01,19,15,11,9.90
2009,01,19,15,12,9.80
2009,01,19,15,13,9.80
2009,01,19,15,14,9.80
2009,01,19,15,15,9.80
2009,01,19,15,16,9.80
2009,01,19,15,17,9.80
2009,01,19,15,18,9.70
2009,01,19,15,19,9.70
2009,01,19,15,20,9.70
2009,01,19,15,21,9.70
2009,01,19,15,22,9.70
2009,01,19,15,23,9.60
2009,01,19,15,24,9.60
2009,01,19,15,25,9.60
2009,01,19,15,26,9.60
2009,01,19,15,27,9.60
2009,01,19,15,28,9.50
2009,01,19,15,29,9.50
2009,01,19,15,30,9.50
2009,01,19,15,31,9.50
2009,01,19,15,32,9.50
2009,01,19,15,33,9.50
2009,01,19,15,34,9.50
2009,01,19,15,35,9.50
2009,01,19,15,36,9.40
2009,01,19,15,37,9.40
2009,01,19,15,38,9.40
2009,01,19,15,39,9.40
2009,01,19,15,40,9.40
2009,01,19,15,41,9.40
2009,01,19,15,42,9.30
2009,01,19,15,43,9.30
2009,01,19,15,44,9.30
2009,01,19,15,45,9.30
2009,01,19,15,46,9.20
2009,01,19,15,47,9.20
2009,01,19,15,48,9.20
2009,01,19,15,49,9.10
2009,01,19,15,50,9.10
2009,01,19,15,51,9.00
2009,01,19,15,52,9.00
2009,01,19,15,53,8.90
2009,01,19,15,54,8.90
2009,01,19,15,55,8.90
2009,01,19,15,56,8.80
2009,01,19,15,57,8.70
2009,01,19,15,58,8.70
2009,01,19,15,59,8.70
2009,01,19,16,00,8.70
2009,01,19,16,01,8.70
2009,01,19,16,02,8.70
2009,01,19,16,03,8.60
2009,01,19,16,04,8.60
2009,01,19,16,05,8.60
2009,01,19,16,06,8.60
2009,01,19,16,07,8.60
2009,01,19,16,08,8.60
2009,01,19,16,09,8.60
2009,01,19,16,10,8.50
2009,01,19,16,11,8.50
2009,01,19,16,12,8.50
2009,01,19,16,13,8.50
2009,01,19,16,14,8.40
2009,01,19,16,15,8.40
2009,01,19,16,16,8.40
2009,01,19,16,17,8.30
2009,01,19,16,18,8.30
2009,01,19,16,19,8.30
2009,01,19,16,20,8.20
2009,01,19,16,21,8.20
2009,01,19,16,22,8.20
2009,01,19,16,23,8.20
2009,01,19,16,24,8.20
2009,01,19,16,25,8.20
2009,01,19,16,26,8.10
2009,01,19,16,27,8.10
2009,01,19,16,28,8.10
2009,01,19,16,29,8.00
2009,01,19,16,30,8.00
2009,01,19,16,31,8.00
2009,01,19,16,32,8.00
2009,01,19,16,33,7.90
2009,01,19,16,34,7.90
2009,01,19,16,35,7.90
2009,01,19,16,36,7.90
2009,01,19,16,37,7.80
2009,01,19,16,38,7.80
2009,01,19,16,39,7.80
2009,01,19,16,40,7.70
2009,01,19,16,41,7.60
2009,01,19,16,42,7.60
2009,01,19,16,43,7.60
2009,01,19,16,44,7.50
2009,01,19,16,45,7.50
2009,01,19,16,46,7.40
2009,01,19,16,47,7.40
2009,01,19,16,48,7.30
2009,01,19,16,49,7.30
2009,01,19,16,50,7.30
2009,01,19,16,51,7.20
2009,01,19,16,52,7.20
2009,01,19,16,53,7.10
2009,01,19,16,54,7.10
2009,01,19,16,55,7.10
2009,01,19,16,56,7.00
2009,01,19,16,57,7.00
2009,01,19,16,58,6.90
2009,01,19,16,59,6.90
2009,01,19,17,00,6.90
2009,01,19,17,01,6.80
2009,01,19,17,02,6.80
2009,01,19,17,03,6.80
2009,01,19,17,04,6.80
2009,01,19,17,05,6.80
2009,01,19,17,06,6.70
2009,01,19,17,07,6.70
2009,01,19,17,08,6.70
2009,01,19,17,09,6.60
2009,01,19,17,10,6.60
2009,01,19,17,11,6.60
2009,01,19,17,12,6.60
2009,01,19,17,13,6.60
2009,01,19,17,14,6.40
2009,01,19,17,15,6.40
2009,01,19,17,16,6.40
2009,01,19,17,17,6.40
2009,01,19,17,18,6.40
2009,01,19,17,19,6.30
2009,01,19,17,20,6.30
2009,01,19,17,21,6.20
2009,01,19,17,22,6.20
2009,01,19,17,23,6.10
2009,01,19,17,24,6.00
2009,01,19,17,25,6.00
2009,01,19,17,26,5.90
2009,01,19,17,27,5.80
2009,01,19,17,28,5.80
2009,01,19,17,29,5.80
2009,01,19,17,30,5.70
2009,01,19,17,31,5.70
2009,01,19,17,32,5.70
2009,01,19,17,33,5.60
2009,01,19,17,34,5.60
2009,01,19,17,35,5.60
2009,01,19,17,36,5.50
2009,01,19,17,37,5.50
2009,01,19,17,38,5.50
2009,01,19,17,39,5.40
2009,01,19,17,40,5.40
2009,01,19,17,41,5.40
2009,01,19,17,42,5.30
2009,01,19,17,43,5.30
2009,01,19,17,44,5.30
2009,01,19,17,45,5.30
2009,01,19,17,46,5.30
2009,01,19,17,47,5.20
2009,01,19,17,48,5.20
2009,01,19,17,49,5.20
2009,01,19,17,50,5.20
2009,01,19,17,51,5.20
2009,01,19,17,52,5.20
2009,01,19,17,53,5.20
2009,01,19,17,54,5.20
2009,01,19,17,55,5.10